Time,TemperatureF,DewpointF,PressureIn,WindDirection,WindDirectionDegrees,WindSpeedMPH,WindSpeedGustMPH,Humidity,HourlyPrecipIn,Conditions,Clouds,dailyrainin,SoftwareType,DateUTC
2013-04-10 00:03:00,66.0,57.0,30.13,ESE,104,1.0,-999.0,73,-99.99,,,-99.99,,2013-04-10 04:03:00,
2013-04-10 00:13:00,66.0,57.0,30.13,ESE,104,1.0,-999.0,73,-99.99,,,-99.99,,2013-04-10 04:13:00,
2013-04-10 00:23:00,66.0,58.0,30.13,ESE,105,1.0,-999.0,75,-99.99,,,-99.99,,2013-04-10 04:23:00,
2013-04-10 00:33:00,65.0,58.0,30.13,East,85,1.0,-999.0,77,-99.99,,,-99.99,,2013-04-10 04:33:00,
2013-04-10 00:43:00,65.0,58.0,30.13,East,85,1.0,-999.0,77,-99.99,,,-99.99,,2013-04-10 04:43:00,
2013-04-10 00:53:00,65.0,58.0,30.13,East,86,1.0,-999.0,78,-99.99,,,-99.99,,2013-04-10 04:53:00,
2013-04-10 01:02:00,64.0,58.0,30.13,East,86,0.0,-999.0,80,-99.99,,,-99.99,,2013-04-10 05:02:00,
2013-04-10 01:13:00,64.0,58.0,30.12,East,79,1.0,-999.0,81,-99.99,,,-99.99,,2013-04-10 05:13:00,
2013-04-10 01:23:00,64.0,58.0,30.12,East,79,1.0,-999.0,81,-99.99,,,-99.99,,2013-04-10 05:23:00,
2013-04-10 01:33:00,63.0,58.0,30.12,East,82,1.0,-999.0,83,-99.99,,,-99.99,,2013-04-10 05:33:00,
2013-04-10 01:42:00,63.0,58.0,30.12,East,82,1.0,-999.0,83,-99.99,,,-99.99,,2013-04-10 05:42:00,
2013-04-10 01:53:00,63.0,58.0,30.11,East,89,1.0,-999.0,84,-99.99,,,-99.99,,2013-04-10 05:53:00,
2013-04-10 02:03:00,63.0,58.0,30.12,East,92,1.0,-999.0,85,-99.99,,,-99.99,,2013-04-10 06:03:00,
2013-04-10 02:12:00,63.0,59.0,30.11,East,80,2.0,-999.0,86,-99.99,,,-99.99,,2013-04-10 06:12:00,
2013-04-10 02:22:00,63.0,59.0,30.11,East,80,2.0,-999.0,86,-99.99,,,-99.99,,2013-04-10 06:22:00,
2013-04-10 02:32:00,63.0,59.0,30.10,East,84,2.0,-999.0,87,-99.99,,,-99.99,,2013-04-10 06:32:00,
2013-04-10 02:42:00,63.0,59.0,30.10,East,84,2.0,-999.0,87,-99.99,,,-99.99,,2013-04-10 06:42:00,
2013-04-10 02:52:00,62.0,58.0,30.09,East,86,2.0,-999.0,87,-99.99,,,-99.99,,2013-04-10 06:52:00,
2013-04-10 03:02:00,62.0,58.0,30.09,East,79,2.0,-999.0,88,-99.99,,,-99.99,,2013-04-10 07:02:00,
2013-04-10 03:12:00,62.0,58.0,30.09,East,79,2.0,-999.0,88,-99.99,,,-99.99,,2013-04-10 07:12:00,
2013-04-10 03:22:00,62.0,59.0,30.09,East,81,2.0,-999.0,89,-99.99,,,-99.99,,2013-04-10 07:22:00,
2013-04-10 03:32:00,62.0,59.0,30.08,East,82,1.0,-999.0,89,-99.99,,,-99.99,,2013-04-10 07:32:00,
2013-04-10 03:42:00,62.0,59.0,30.08,East,82,1.0,-999.0,89,-99.99,,,-99.99,,2013-04-10 07:42:00,
2013-04-10 03:52:00,62.0,59.0,30.08,East,82,0.0,-999.0,89,-99.99,,,-99.99,,2013-04-10 07:52:00,
2013-04-10 04:02:00,62.0,59.0,30.08,East,82,0.0,-999.0,89,-99.99,,,-99.99,,2013-04-10 08:02:00,
2013-04-10 04:12:00,62.0,59.0,30.08,East,82,0.0,-999.0,89,-99.99,,,-99.99,,2013-04-10 08:12:00,
2013-04-10 04:22:00,61.0,58.0,30.08,East,82,0.0,-999.0,90,-99.99,,,-99.99,,2013-04-10 08:22:00,
2013-04-10 04:32:00,61.0,58.0,30.08,East,82,0.0,-999.0,91,-99.99,,,-99.99,,2013-04-10 08:32:00,
2013-04-10 04:42:00,61.0,58.0,30.08,East,82,0.0,-999.0,91,-99.99,,,-99.99,,2013-04-10 08:42:00,
2013-04-10 04:52:00,61.0,59.0,30.08,East,82,0.0,-999.0,92,-99.99,,,-99.99,,2013-04-10 08:52:00,
2013-04-10 05:02:00,61.0,59.0,30.09,East,82,0.0,-999.0,92,-99.99,,,-99.99,,2013-04-10 09:02:00,
2013-04-10 05:12:00,61.0,59.0,30.08,East,82,0.0,-999.0,93,-99.99,,,-99.99,,2013-04-10 09:12:00,
2013-04-10 05:22:00,61.0,59.0,30.08,East,82,0.0,-999.0,93,-99.99,,,-99.99,,2013-04-10 09:22:00,
2013-04-10 05:32:00,61.0,59.0,30.08,East,82,0.0,-999.0,93,-99.99,,,-99.99,,2013-04-10 09:32:00,
2013-04-10 05:43:00,61.0,59.0,30.08,East,82,0.0,-999.0,93,-99.99,,,-99.99,,2013-04-10 09:43:00,
2013-04-10 05:53:00,61.0,59.0,30.08,East,82,0.0,-999.0,93,-99.99,,,-99.99,,2013-04-10 09:53:00,
2013-04-10 06:03:00,60.0,58.0,30.08,East,82,0.0,-999.0,93,-99.99,,,-99.99,,2013-04-10 10:03:00,
2013-04-10 06:13:00,60.0,58.0,30.09,East,82,0.0,-999.0,94,-99.99,,,-99.99,,2013-04-10 10:13:00,
2013-04-10 06:23:00,60.0,58.0,30.09,East,82,0.0,-999.0,94,-99.99,,,-99.99,,2013-04-10 10:23:00,
2013-04-10 06:33:00,61.0,60.0,30.08,East,82,0.0,-999.0,95,-99.99,,,-99.99,,2013-04-10 10:33:00,
2013-04-10 06:43:00,61.0,60.0,30.08,East,82,0.0,-999.0,95,-99.99,,,-99.99,,2013-04-10 10:43:00,
2013-04-10 06:53:00,62.0,60.0,30.08,East,82,0.0,-999.0,94,-99.99,,,-99.99,,2013-04-10 10:53:00,
2013-04-10 07:02:00,62.0,60.0,30.08,East,82,0.0,-999.0,94,-99.99,,,-99.99,,2013-04-10 11:02:00,
2013-04-10 07:12:00,62.0,60.0,30.08,East,82,0.0,-999.0,94,-99.99,,,-99.99,,2013-04-10 11:12:00,
2013-04-10 07:22:00,62.0,61.0,30.08,East,82,1.0,-999.0,95,-99.99,,,-99.99,,2013-04-10 11:22:00,
2013-04-10 07:32:00,62.0,61.0,30.08,East,82,1.0,-999.0,95,-99.99,,,-99.99,,2013-04-10 11:32:00,
2013-04-10 07:42:00,62.0,61.0,30.08,East,82,1.0,-999.0,95,-99.99,,,-99.99,,2013-04-10 11:42:00,
2013-04-10 07:53:00,62.0,61.0,30.08,East,90,2.0,-999.0,95,-99.99,,,-99.99,,2013-04-10 11:53:00,
2013-04-10 08:03:00,63.0,62.0,30.08,East,86,3.0,-999.0,95,-99.99,,,-99.99,,2013-04-10 12:03:00,
2013-04-10 08:12:00,63.0,62.0,30.08,East,86,3.0,-999.0,95,-99.99,,,-99.99,,2013-04-10 12:12:00,
2013-04-10 08:23:00,63.0,62.0,30.09,East,90,1.0,-999.0,95,-99.99,,,-99.99,,2013-04-10 12:23:00,
2013-04-10 08:33:00,64.0,63.0,30.09,East,90,0.0,-999.0,95,-99.99,,,-99.99,,2013-04-10 12:33:00,
2013-04-10 08:42:00,64.0,63.0,30.09,East,90,0.0,-999.0,95,-99.99,,,-99.99,,2013-04-10 12:42:00,
2013-04-10 08:52:00,66.0,64.0,30.09,East,94,0.0,-999.0,94,-99.99,,,-99.99,,2013-04-10 12:52:00,
2013-04-10 09:02:00,67.0,64.0,30.09,SSE,147,0.0,-999.0,91,-99.99,,,-99.99,,2013-04-10 13:02:00,
2013-04-10 09:12:00,67.0,64.0,30.09,SSE,147,0.0,-999.0,91,-99.99,,,-99.99,,2013-04-10 13:12:00,
2013-04-10 09:23:00,69.0,65.0,30.09,SE,126,0.0,-999.0,86,-99.99,,,-99.99,,2013-04-10 13:23:00,
2013-04-10 09:32:00,71.0,64.0,30.09,SE,144,0.0,-999.0,79,-99.99,,,-99.99,,2013-04-10 13:32:00,
2013-04-10 09:43:00,71.0,64.0,30.09,SE,144,0.0,-999.0,79,-99.99,,,-99.99,,2013-04-10 13:43:00,
2013-04-10 09:53:00,73.0,65.0,30.10,SSE,159,2.0,-999.0,75,-99.99,,,-99.99,,2013-04-10 13:53:00,
2013-04-10 10:02:00,74.0,65.0,30.10,SSE,155,1.0,-999.0,74,-99.99,,,-99.99,,2013-04-10 14:02:00,
2013-04-10 10:12:00,74.0,65.0,30.10,SSE,155,1.0,-999.0,74,-99.99,,,-99.99,,2013-04-10 14:12:00,
2013-04-10 10:22:00,74.0,64.0,30.11,SSE,157,2.0,-999.0,72,-99.99,,,-99.99,,2013-04-10 14:22:00,
2013-04-10 10:33:00,75.0,64.0,30.11,South,184,3.0,-999.0,69,-99.99,,,-99.99,,2013-04-10 14:33:00,
2013-04-10 10:42:00,76.0,65.0,30.10,South,169,3.0,-999.0,69,-99.99,,,-99.99,,2013-04-10 14:42:00,
2013-04-10 10:52:00,76.0,65.0,30.10,South,169,3.0,-999.0,69,-99.99,,,-99.99,,2013-04-10 14:52:00,
2013-04-10 11:02:00,76.0,65.0,30.10,SSW,195,3.0,-999.0,68,-99.99,,,-99.99,,2013-04-10 15:02:00,
2013-04-10 11:12:00,76.0,65.0,30.10,SSW,195,3.0,-999.0,68,-99.99,,,-99.99,,2013-04-10 15:12:00,
2013-04-10 11:23:00,77.0,64.0,30.10,SE,133,3.0,-999.0,65,-99.99,,,-99.99,,2013-04-10 15:23:00,
2013-04-10 11:33:00,77.0,63.0,30.10,SE,126,4.0,-999.0,62,-99.99,,,-99.99,,2013-04-10 15:33:00,
2013-04-10 11:42:00,77.0,63.0,30.10,SE,126,4.0,-999.0,62,-99.99,,,-99.99,,2013-04-10 15:42:00,
2013-04-10 11:53:00,78.0,63.0,30.10,ESE,112,4.0,-999.0,60,-99.99,,,-99.99,,2013-04-10 15:53:00,
2013-04-10 12:03:00,80.0,64.0,30.10,SSE,163,3.0,-999.0,59,-99.99,,,-99.99,,2013-04-10 16:03:00,
2013-04-10 12:13:00,80.0,64.0,30.10,SSE,163,3.0,-999.0,59,-99.99,,,-99.99,,2013-04-10 16:13:00,
2013-04-10 12:23:00,80.0,61.0,30.09,ESE,114,5.0,-999.0,53,-99.99,,,-99.99,,2013-04-10 16:23:00,
2013-04-10 12:33:00,80.0,62.0,30.09,ESE,111,4.0,-999.0,54,-99.99,,,-99.99,,2013-04-10 16:33:00,
2013-04-10 12:43:00,80.0,62.0,30.09,ESE,111,4.0,-999.0,54,-99.99,,,-99.99,,2013-04-10 16:43:00,
2013-04-10 12:53:00,81.0,62.0,30.09,SSW,192,4.0,-999.0,53,-99.99,,,-99.99,,2013-04-10 16:53:00,
2013-04-10 13:03:00,81.0,61.0,30.08,SSE,165,3.0,-999.0,51,-99.99,,,-99.99,,2013-04-10 17:03:00,
2013-04-10 13:12:00,80.0,61.0,30.07,ESE,122,3.0,-999.0,52,-99.99,,,-99.99,,2013-04-10 17:12:00,
2013-04-10 13:22:00,80.0,61.0,30.07,ESE,122,3.0,-999.0,52,-99.99,,,-99.99,,2013-04-10 17:22:00,
2013-04-10 13:33:00,82.0,61.0,30.06,SE,137,3.0,-999.0,50,-99.99,,,-99.99,,2013-04-10 17:33:00,
2013-04-10 13:43:00,82.0,61.0,30.06,SE,137,3.0,-999.0,50,-99.99,,,-99.99,,2013-04-10 17:43:00,
2013-04-10 13:53:00,83.0,61.0,30.06,South,171,3.0,-999.0,47,-99.99,,,-99.99,,2013-04-10 17:53:00,
2013-04-10 14:03:00,83.0,59.0,30.06,SE,140,4.0,-999.0,45,-99.99,,,-99.99,,2013-04-10 18:03:00,
2013-04-10 14:12:00,83.0,59.0,30.06,SE,140,4.0,-999.0,45,-99.99,,,-99.99,,2013-04-10 18:12:00,
2013-04-10 14:23:00,82.0,60.0,30.06,SSW,196,5.0,-999.0,48,-99.99,,,-99.99,,2013-04-10 18:23:00,
2013-04-10 14:33:00,83.0,59.0,30.05,ESE,103,3.0,-999.0,44,-99.99,,,-99.99,,2013-04-10 18:33:00,
2013-04-10 14:42:00,83.0,59.0,30.05,ESE,103,3.0,-999.0,44,-99.99,,,-99.99,,2013-04-10 18:42:00,
2013-04-10 14:53:00,83.0,59.0,30.04,SE,139,4.0,-999.0,45,-99.99,,,-99.99,,2013-04-10 18:53:00,
2013-04-10 15:03:00,84.0,59.0,30.04,ESE,106,3.0,-999.0,43,-99.99,,,-99.99,,2013-04-10 19:03:00,
2013-04-10 15:12:00,84.0,59.0,30.04,ESE,106,3.0,-999.0,43,-99.99,,,-99.99,,2013-04-10 19:12:00,
2013-04-10 15:22:00,85.0,59.0,30.03,SE,124,4.0,-999.0,42,-99.99,,,-99.99,,2013-04-10 19:22:00,
2013-04-10 15:33:00,84.0,60.0,30.03,SSW,198,5.0,-999.0,44,-99.99,,,-99.99,,2013-04-10 19:33:00,
2013-04-10 15:42:00,84.0,60.0,30.03,SSW,198,5.0,-999.0,44,-99.99,,,-99.99,,2013-04-10 19:42:00,
2013-04-10 15:53:00,84.0,58.0,30.03,South,172,3.0,-999.0,42,-99.99,,,-99.99,,2013-04-10 19:53:00,
2013-04-10 16:03:00,85.0,60.0,30.02,South,183,4.0,-999.0,43,-99.99,,,-99.99,,2013-04-10 20:03:00,
2013-04-10 16:12:00,85.0,57.0,30.01,SSW,205,4.0,-999.0,39,-99.99,,,-99.99,,2013-04-10 20:12:00,
2013-04-10 16:23:00,85.0,57.0,30.01,SSW,205,4.0,-999.0,39,-99.99,,,-99.99,,2013-04-10 20:23:00,
2013-04-10 16:33:00,85.0,57.0,30.00,SSW,194,5.0,-999.0,38,-99.99,,,-99.99,,2013-04-10 20:33:00,
2013-04-10 16:42:00,87.0,58.0,30.00,SSE,155,4.0,-999.0,38,-99.99,,,-99.99,,2013-04-10 20:42:00,
2013-04-10 16:52:00,87.0,58.0,30.00,SSE,155,4.0,-999.0,38,-99.99,,,-99.99,,2013-04-10 20:52:00,
2013-04-10 17:03:00,87.0,58.0,30.00,SSE,155,4.0,-999.0,38,-99.99,,,-99.99,,2013-04-10 21:03:00,
2013-04-10 17:13:00,87.0,58.0,30.00,SSE,155,4.0,-999.0,38,-99.99,,,-99.99,,2013-04-10 21:13:00,
2013-04-10 17:22:00,86.0,57.0,30.00,South,177,4.0,-999.0,38,-99.99,,,-99.99,,2013-04-10 21:22:00,
2013-04-10 17:33:00,86.0,57.0,29.99,SE,142,3.0,-999.0,38,-99.99,,,-99.99,,2013-04-10 21:33:00,
2013-04-10 17:43:00,86.0,57.0,29.99,SE,142,3.0,-999.0,38,-99.99,,,-99.99,,2013-04-10 21:43:00,
2013-04-10 17:53:00,86.0,57.0,29.99,SSE,164,2.0,-999.0,37,-99.99,,,-99.99,,2013-04-10 21:53:00,
2013-04-10 18:03:00,85.0,57.0,29.98,ESE,120,2.0,-999.0,38,-99.99,,,-99.99,,2013-04-10 22:03:00,
2013-04-10 18:13:00,85.0,57.0,29.98,ESE,112,1.0,-999.0,38,-99.99,,,-99.99,,2013-04-10 22:13:00,
2013-04-10 18:23:00,85.0,57.0,29.98,ESE,112,1.0,-999.0,38,-99.99,,,-99.99,,2013-04-10 22:23:00,
2013-04-10 18:33:00,85.0,57.0,29.98,ESE,112,1.0,-999.0,38,-99.99,,,-99.99,,2013-04-10 22:33:00,
2013-04-10 18:42:00,85.0,57.0,29.98,ESE,112,1.0,-999.0,38,-99.99,,,-99.99,,2013-04-10 22:42:00,
2013-04-10 18:53:00,86.0,58.0,29.98,East,85,2.0,-999.0,39,-99.99,,,-99.99,,2013-04-10 22:53:00,
2013-04-10 19:03:00,85.0,57.0,29.98,East,96,2.0,-999.0,39,-99.99,,,-99.99,,2013-04-10 23:03:00,
2013-04-10 19:12:00,83.0,64.0,29.98,ESE,107,4.0,-999.0,52,-99.99,,,-99.99,,2013-04-10 23:12:00,
2013-04-10 19:22:00,83.0,64.0,29.98,ESE,107,4.0,-999.0,52,-99.99,,,-99.99,,2013-04-10 23:22:00,
2013-04-10 19:33:00,83.0,64.0,29.98,ESE,107,4.0,-999.0,52,-99.99,,,-99.99,,2013-04-10 23:33:00,
2013-04-10 19:43:00,83.0,64.0,29.98,ESE,107,4.0,-999.0,52,-99.99,,,-99.99,,2013-04-10 23:43:00,
2013-04-10 19:53:00,81.0,64.0,29.98,ESE,113,6.0,-999.0,56,-99.99,,,-99.99,,2013-04-10 23:53:00,
2013-04-10 20:02:00,80.0,64.0,29.98,East,84,5.0,-999.0,59,-99.99,,,-99.99,,2013-04-11 00:02:00,
2013-04-10 20:13:00,79.0,64.0,29.98,ESE,105,6.0,-999.0,61,-99.99,,,-99.99,,2013-04-11 00:13:00,
2013-04-10 20:22:00,79.0,64.0,29.98,ESE,105,6.0,-999.0,61,-99.99,,,-99.99,,2013-04-11 00:22:00,
2013-04-10 20:32:00,78.0,65.0,29.98,ESE,110,4.0,-999.0,64,-99.99,,,-99.99,,2013-04-11 00:32:00,
2013-04-10 20:42:00,77.0,65.0,29.98,ESE,116,4.0,-999.0,66,-99.99,,,-99.99,,2013-04-11 00:42:00,
2013-04-10 20:52:00,77.0,65.0,29.98,ESE,116,4.0,-999.0,66,-99.99,,,-99.99,,2013-04-11 00:52:00,
2013-04-10 21:02:00,76.0,65.0,29.99,ESE,110,5.0,-999.0,68,-99.99,,,-99.99,,2013-04-11 01:02:00,
2013-04-10 21:12:00,76.0,66.0,29.99,NE,55,4.0,-999.0,71,-99.99,,,-99.99,,2013-04-11 01:12:00,
2013-04-10 21:22:00,76.0,66.0,29.99,NE,55,4.0,-999.0,71,-99.99,,,-99.99,,2013-04-11 01:22:00,
2013-04-10 21:32:00,75.0,66.0,30.00,SE,146,3.0,-999.0,74,-99.99,,,-99.99,,2013-04-11 01:32:00,
2013-04-10 21:42:00,75.0,67.0,30.00,ESE,105,5.0,-999.0,76,-99.99,,,-99.99,,2013-04-11 01:42:00,
2013-04-10 21:52:00,75.0,67.0,30.00,ESE,105,5.0,-999.0,76,-99.99,,,-99.99,,2013-04-11 01:52:00,
2013-04-10 22:03:00,74.0,66.0,30.01,ESE,108,3.0,-999.0,77,-99.99,,,-99.99,,2013-04-11 02:03:00,
2013-04-10 22:12:00,74.0,67.0,30.01,WSW,251,3.0,-999.0,79,-99.99,,,-99.99,,2013-04-11 02:12:00,
2013-04-10 22:22:00,74.0,67.0,30.01,WSW,251,3.0,-999.0,79,-99.99,,,-99.99,,2013-04-11 02:22:00,
2013-04-10 22:32:00,74.0,67.0,30.01,ESE,115,4.0,-999.0,80,-99.99,,,-99.99,,2013-04-11 02:32:00,
2013-04-10 22:42:00,74.0,67.0,30.01,ESE,115,4.0,-999.0,80,-99.99,,,-99.99,,2013-04-11 02:42:00,
2013-04-10 22:52:00,73.0,67.0,30.01,East,84,3.0,-999.0,81,-99.99,,,-99.99,,2013-04-11 02:52:00,
2013-04-10 23:02:00,73.0,67.0,30.01,SE,130,2.0,-999.0,82,-99.99,,,-99.99,,2013-04-11 03:02:00,
2013-04-10 23:12:00,73.0,68.0,30.01,ESE,111,2.0,-999.0,83,-99.99,,,-99.99,,2013-04-11 03:12:00,
2013-04-10 23:22:00,73.0,68.0,30.01,ESE,111,2.0,-999.0,83,-99.99,,,-99.99,,2013-04-11 03:22:00,
2013-04-10 23:33:00,73.0,68.0,30.00,ESE,121,2.0,-999.0,84,-99.99,,,-99.99,,2013-04-11 03:33:00,
2013-04-10 23:43:00,72.0,67.0,30.00,ESE,104,3.0,-999.0,85,-99.99,,,-99.99,,2013-04-11 03:43:00,
2013-04-10 23:53:00,72.0,67.0,30.00,ESE,104,3.0,-999.0,85,-99.99,,,-99.99,,2013-04-11 03:53:00,